Regional Weather Roundup
Issued by NWS

Home | Current Version | Previous Version | Graphics & Text | Print | Product List | Glossary On
Versions: 1 2 3 4 5 6 7 8 9 10 11 12 13 14 15 16 17 18 19 20 21 22 23 24 25 26 27 28 29 30 31 32 33 34 35 36 37 38 39 40 41 42 43 44 45 46 47 48 49 50
000
ASUS43 KBIS 050202
RWRND

NORTH DAKOTA REGIONAL WEATHER ROUNDUP
NATIONAL WEATHER SERVICE BISMARCK ND
900 PM CDT FRI SEP 04 2015

NOTE: "FAIR" INDICATES FEW OR NO CLOUDS BELOW 12,000 FEET WITH NO
SIGNIFICANT WEATHER AND/OR OBSTRUCTIONS TO VISIBILITY.


NDZ001>003-009>011-017-050300-
NORTHWEST NORTH DAKOTA

CITY           SKY/WX    TMP DP  RH WIND       PRES   REMARKS
WILLISTON      CLOUDY    67  58  72 NE14      29.90R
MINOT          CLOUDY    63  58  83 N13       29.88R
$$

NDZ018>021-031>035-040>046-050300-
SOUTHWEST NORTH DAKOTA

CITY           SKY/WX    TMP DP  RH WIND       PRES   REMARKS
BISMARCK       CLEAR     79  66  64 NE7       29.80R
DICKINSON      CLEAR     67  60  78 NE14      29.84R
GARRISON         N/A     68  59  73 NE14G21   29.86S
HETTINGER ARPT CLEAR     76  55  48 E6        29.81S
$$

NDZ004>008-012>016-024-026-027-054-050300-
NORTHEAST NORTH DAKOTA

CITY           SKY/WX    TMP DP  RH WIND       PRES   REMARKS
GRAND FORKS    PTCLDY    69  66  90 NW6       29.82S
GRND FRKS AFB  PTCLDY    66  65  97 N3        29.84S
DEVILS LAKE    MOCLDY    70  63  78 NE7       29.85R
$$

NDZ022-023-025-028>030-036>039-047>053-050300-
SOUTHEAST NORTH DAKOTA

CITY           SKY/WX    TMP DP  RH WIND       PRES   REMARKS
FARGO          CLOUDY    76  73  91 E6        29.81F
JAMESTOWN      CLEAR     71  68  90 SE6       29.82S
$$




USA.gov is the U.S. government's official web portal to all federal, state and local government web resources and services.